sat.trackr.live / text

‹ back to catalog

STARLINK-37056

NORAD 68260 · 2026-054AE

PAYLOAD ACTIVE UNKNOWN

§ Identity

Operator
Country
US
Launch date
2026-03-17
Launch site
AFETR
Launch vehicle
Mass (kg)
RCS (m²)

Purposes: comms

External: N2YO · Heavens-Above · Gunter

§ Orbital elements

Epoch: 2026-05-24T21:25:46.722432Z

Period
92.94 min
Inclination
53.1578°
Eccentricity
0.0000967
Mean motion
15.49337597 rev/d
Perigee alt
418.0 km
Apogee alt
419.3 km
Semi-major
6,796.8 km
B*
1.0307e-3
RAAN
299.0309°
Arg perigee
90.4438°
Mean anomaly
269.6682°
Rev number
1,071

§ Raw data

STARLINK-370561 68260U 26054AE  26144.89290188  .00057354  00000+0  10307-2 0  99972 68260  53.1578 299.0309 0000967  90.4438 269.6682 15.49337597 10716

JSON: /api/v1/satellites/68260 · /tle

For live sub-satellite position, see the globe view (requires WebGL).

§ Visibility from observer

Set your observer location to see the next 7 days of passes ≥ 10°. The values pass through the URL so the page stays shareable.

No JS? Fill the form by hand. The geolocation button needs JavaScript.